Regional Weather Roundup
Issued by NWS Jackson, KY

Home | Current Version | Previous Version | Text Only | Print | Product List | Glossary On
Versions: 1 2 3 4 5 6 7 8 9 10 11 12 13 14 15 16 17 18 19 20 21 22 23 24 25 26 27 28 29 30 31 32 33 34 35 36 37 38 39 40 41 42 43 44 45 46 47 48 49 50
000
ASUS43 KJKL 231210
RWRJKL

EAST KENTUCKY HOURLY WEATHER ROUNDUP
NATIONAL WEATHER SERVICE JACKSON KY
800 AM EDT WED MAY 23 2018

NOTE: "FAIR" INDICATES FEW OR NO CLOUDS BELOW 12,000 FEET WITH
NO SIGNIFICANT WEATHER AND/OR OBSTRUCTIONS TO VISIBILITY.

* THESE REPORTS ARE NOT UNDER NWS QUALITY CONTROL AND MAY NOT
  REPORT WEATHER SUCH AS PRECIPITATION AND FOG.

KYZ079-080-083-085-087-088-110-112-115-119-120-231300
...EASTERN KENTUCKY...

CITY           SKY/WX    TMP DP  RH WIND       PRES   REMARKS
JACKSON        CLOUDY    66  65  96 CALM      30.11S
6HR MIN TEMP:  65; 6HR MAX TEMP:  67;

LONDON         FOG       64  64 100 S3        30.12S VSB 1/4
6HR MIN TEMP:  62; 6HR MAX TEMP:  64;

SOMERSET*      CLOUDY    63  63 100 MISG      30.13R FOG
MONTICELLO*    PTSUNNY   64  64 100 CALM      30.14R
6HR MIN TEMP:  59; 6HR MAX TEMP:  64;

WILLIAMSBURG*  CLOUDY    63  63 100 CALM      30.13R VSB<1/4
MIDDLESBORO*   FOG       64  64 100 CALM      30.14R VSB 1/2
6HR MIN TEMP:  63; 6HR MAX TEMP:  65;

HARLAN APT*    CLOUDY    64  64 100 CALM      30.14R VSB<1/4
PIKE CO APT*   FOG       66  66 100 CALM      30.11S VSB 1/2
BIG SANDY APT* CLOUDY    66  66 100 CALM      30.11R FOG
6HR MIN TEMP:  66; 6HR MAX TEMP:  67;

MOREHEAD APT*    N/A     68  66  94 CALM      30.12R
ASHLAND*       PTSUNNY   66  66 100 CALM      30.10R
$$

KYZ035-036-041-042-044-050-067-078-099-231300
...CENTRAL KENTUCKY...

CITY           SKY/WX    TMP DP  RH WIND       PRES   REMARKS
MT STERLING*     N/A     68  64  88 CALM      30.12S
FLEMING/MASON*   N/A     66  63  90 CALM      30.12S
DANVILLE*      CLOUDY    66  64  94 CALM      30.12R
LEXINGTON        N/A     69  64  84 NE7       30.11R
6HR MIN TEMP:  66; 6HR MAX TEMP:  70;

FRANKFORT        N/A     67  62  84 N3        30.10R
6HR MIN TEMP:  66; 6HR MAX TEMP:  69;

LOUISVILLE       N/A     70  62  76 NE6       30.11R
6HR MIN TEMP:  68; 6HR MAX TEMP:  74;

LEBANON*       CLOUDY    68  68 100 CALM      30.11R FOG
GLASGOW*       CLOUDY    66  65  98 CALM      30.11R FOG
BOWLING GREEN  CLOUDY    68  68 100 CALM      30.10R
6HR MIN TEMP:  65; 6HR MAX TEMP:  69;

$$

KYZ091>093-OHZ055-061-077-WVZ005-015-034-035-042-231300
...SOUTHERN OHIO/WEST VIRGINIA...

CITY           SKY/WX    TMP DP  RH WIND       PRES   REMARKS
COVINGTON        N/A     65  59  81 N6        30.12R
COLUMBUS       PTSUNNY   63  55  75 N9        30.11R
DAYTON         PTSUNNY   62  59  90 N9        30.15R
WILMINGTON       N/A     63  61  93 N8        30.12R
HUNTINGTON     FOG       67  65  93 N5        30.09R VSB 1
CHARLESTON     FOG       67  66  97 CALM      30.09R VSB 1
PINEVILLE*     CLOUDY    65  65  97 MISG      30.17R
BECKLEY        CLOUDY    63  61  93 W6        30.13R
BLUEFIELD      CLOUDY    62  62 100 W7        30.17R
LOGAN CO APT*  CLOUDY    66  66 100 CALM      30.11R
$$

VAZ002-007-008-TNZ017-027-036-066-071-231300
...SOUTHWEST VIRGINIA/EAST TENNESSEE...

CITY           SKY/WX    TMP DP  RH WIND       PRES   REMARKS
WISE*          CLOUDY    68  68 100 SW5       30.18R
JONESVILLE*    FOG       64  64 100 CALM      30.16R VSB<1/4
ABINGDON*      CLOUDY    67  67 100 W5        30.16R
BRISTOL        CLOUDY    67  67 100 CALM      30.14R
MORRISTOWN*    FOG       66  66 100 CALM      30.13R VSB 1/4
SEVIERVILLE*   MOSUNNY   68  64  88 CALM      30.12S
KNOXVILLE        N/A     68  67  96 CALM      30.11S
LAFOLLETTE*    FOG       64  64 100 CALM      30.16R VSB 0
OAK RIDGE      CLOUDY    67  67 100 CALM      30.13R FOG
CROSSVILLE       N/A     65  64  97 CALM      30.15S
NASHVILLE      PTSUNNY   68  66  93 S3        30.11R FOG
$$

...KEY TO REMARKS...
VSB - VISIBILITY IN MILES
WCI - WIND CHILL INDEX
HX  - HEAT INDEX

$$



USA.gov is the U.S. government's official web portal to all federal, state and local government web resources and services.